Location: Hertford
(51.8000°N, 0.0667°W)
Time: 13:10:16
(UTC+00:00)

SJ 16-02 - Pass Details

Date: 18 September 2020
Orbit: 606 x 616 km, 75.0° (Epoch: 22 October)

Event Time Altitude Azimuth Distance (km) Brightness Sun altitude
Rises 19:37:17 0° 234° (SW) 2,859 5.2 -14.4°
Reaches altitude 10° 19:39:47 10° 247° (WSW) 1,959 4.6 -14.8°
Maximum altitude 19:43:32 27° 306° (NW) 1,170 3.6 -15.3°
Drops below altitude 10° 19:47:19 10° 5° (N) 1,970 4.2 -15.9°
Sets 19:49:51 0° 18° (NNE) 2,879 4.9 -16.2°
